QPF
0.05 0.09 0.11 0.06 0.05 0.05 0.07 0.07 0.05 0.04 0.04 0.03 0.02 0.02 0.03 0.03 0.02 0.02 0.03 0.05 0.06 0.06 0.05 0.08 0.13 0.11 0.09 0.06 0.05 0.06 0.07 0.06 0.08 0.09 0.09 0.10 0.08 0.10 0.10 0.08 0.06 0.04 0.09
0.07 0.08 0.09 0.12 0.11 0.06 0.05 0.07 0.05 0.04 0.03 0.03 0.03 0.03 0.03 0.02 0.02 0.02 0.03 0.04 0.05 0.06 0.04 0.05 0.07 0.07 0.07 0.06 0.06 0.07 0.08 0.07 0.08 0.07 0.07 0.09 0.11 0.14 0.13 0.08 0.05 0.04 0.09
0.04 0.04 0.04 0.10 0.15 0.08 0.06 0.06 0.07 0.05 0.03 0.03 0.03 0.03 0.03 0.05 0.04 0.04 0.03 0.04 0.06 0.06 0.05 0.05 0.05 0.06 0.06 0.06 0.06 0.07 0.07 0.09 0.10 0.10 0.08 0.06 0.07 0.09 0.10 0.08 0.07 0.07 0.10
0.03 0.02 0.03 0.08 0.10 0.08 0.09 0.09 0.09 0.07 0.05 0.04 0.03 0.03 0.03 0.04 0.04 0.04 0.05 0.05 0.06 0.07 0.07 0.06 0.06 0.06 0.06 0.06 0.05 0.05 0.05 0.06 0.08 0.08 0.07 0.04 0.03 0.05 0.08 0.08 0.09 0.09 0.09
0.02 0.02 0.03 0.04 0.05 0.07 0.08 0.08 0.09 0.06 0.04 0.04 0.04 0.03 0.04 0.05 0.05 0.04 0.06 0.07 0.07 0.08 0.08 0.07 0.05 0.04 0.04 0.03 0.03 0.03 0.03 0.04 0.04 0.03 0.02 0.02 0.02 0.05 0.06 0.05 0.07 0.10 0.08
0.01 0.01 0.02 0.04 0.03 0.04 0.07 0.07 0.06 0.04 0.04 0.03 0.04 0.05 0.05 0.05 0.05 0.04 0.07 0.07 0.07 0.08 0.09 0.06 0.06 0.05 0.03 0.03 0.04 0.03 0.03 0.03 0.01 0.01 0.02 0.02 0.02 0.06 0.06 0.05 0.06 0.09 0.11
0.02 0.01 0.01 0.03 0.03 0.03 0.04 0.04 0.05 0.03 0.03 0.04 0.07 0.20 0.13 0.05 0.04 0.05 0.09 0.11 0.11 0.15 0.08 0.05 0.05 0.04 0.03 0.04 0.03 0.03 0.03 0.01 0.01 0.01 0.02 0.02 0.03 0.07 0.06 0.05 0.05 0.04 0.04
0.02 0.01 0.01 0.02 0.02 0.02 0.02 0.02 0.02 0.02 0.02 0.02 0.03 0.11 0.10 0.05 0.05 0.06 0.08 0.07 0.05 0.05 0.03 0.03 0.03 0.03 0.03 0.04 0.04 0.03 0.02 0.01 0.00 0.01 0.01 0.01 0.05 0.08 0.06 0.06 0.05 0.04 0.04
0.03 0.03 0.02 0.01 0.01 0.02 0.03 0.02 0.01 0.01 0.01 0.01 0.01 0.02 0.03 0.03 0.03 0.04 0.05 0.04 0.03 0.03 0.03 0.03 0.03 0.02 0.02 0.02 0.03 0.03 0.02 0.01 0.01 0.01 0.00 0.02 0.06 0.07 0.06 0.06 0.06 0.06 0.05
0.07 0.03 0.02 0.01 0.01 0.01 0.01 0.02 0.01 0.00 0.01 0.01 0.01 0.01 0.02 0.01 0.02 0.03 0.03 0.03 0.04 0.03 0.02 0.02 0.03 0.02 0.02 0.02 0.02 0.02 0.02 0.02 0.01 0.01 0.01 0.03 0.05 0.05 0.06 0.06 0.07 0.06 0.06
0.09 0.06 0.05 0.03 0.02 0.04 0.01 0.01 0.01 0.00 0.00 0.00 0.00 0.01 0.01 0.01 0.01 0.02 0.02 0.03 0.03 0.03 0.01 0.01 0.02 0.02 0.02 0.02 0.02 0.01 0.01 0.01 0.01 0.01 0.02 0.06 0.07 0.06 0.07 0.08 0.06 0.05 0.05
0.05 0.06 0.05 0.05 0.06 0.06 0.01 0.01 0.00 0.00 0.00 0.00 0.00 0.00 0.00 0.01 0.01 0.01 0.01 0.02 0.02 0.02 0.02 0.01 0.01 0.01 0.01 0.01 0.01 0.01 0.01 0.01 0.02 0.01 0.03 0.10 0.10 0.08 0.08 0.08 0.07 0.09 0.07
0.01 0.02 0.02 0.03 0.03 0.03 0.01 0.01 0.01 0.02 0.02 0.01 0.01 0.00 0.00 0.01 0.01 0.01 0.01 0.01 0.02 0.02 0.01 0.01 0.00 0.01 0.01 0.01 0.01 0.00 0.01 0.01 0.02 0.02 0.03 0.05 0.08 0.09 0.11 0.11 0.13 0.12 0.08
0.00 0.01 0.02 0.02 0.02 0.02 0.01 0.01 0.01 0.01 0.01 0.02 0.01 0.01 0.01 0.01 0.01 0.01 0.00 0.01 0.02 0.02 0.02 0.02 0.01 0.01 0.02 0.01 0.00 0.00 0.00 0.01 0.01 0.02 0.03 0.05 0.07 0.13 0.17 0.14 0.09 0.06 0.04
0.00 0.00 0.01 0.02 0.02 0.01 0.00 0.00 0.00 0.00 0.00 0.00 0.00 0.01 0.01 0.01 0.01 0.01 0.01 0.01 0.02 0.03 0.03 0.03 0.02 0.02 0.02 0.01 0.00 0.00 0.00 0.00 0.00 0.01 0.02 0.03 0.04 0.06 0.06 0.04 0.03 0.02 0.02
0.01 0.01 0.01 0.02 0.02 0.01 0.00 0.00 0.00 0.00 0.01 0.01 0.01 0.01 0.00 0.00 0.00 0.00 0.01 0.01 0.02 0.03 0.04 0.03 0.03 0.04 0.03 0.02 0.01 0.00 0.00 0.00 0.00 0.00 0.01 0.02 0.03 0.04 0.02 0.03 0.03 0.03 0.03
0.02 0.01 0.01 0.02 0.02 0.01 0.00 0.00 0.01 0.01 0.00 0.00 0.00 0.01 0.01 0.00 0.00 0.00 0.00 0.00 0.01 0.03 0.04 0.05 0.06 0.06 0.03 0.02 0.02 0.01 0.01 0.01 0.01 0.01 0.01 0.02 0.03 0.04 0.04 0.04 0.04 0.04 0.04
0.02 0.02 0.01 0.01 0.02 0.01 0.00 0.00 0.00 0.00 0.00 0.00 0.00 0.00 0.00 0.00 0.00 0.00 0.00 0.00 0.01 0.02 0.04 0.06 0.07 0.05 0.03 0.02 0.02 0.02 0.01 0.01 0.01 0.01 0.01 0.01 0.03 0.06 0.10 0.10 0.06 0.04 0.05
0.03 0.03 0.02 0.02 0.02 0.02 0.01 0.01 0.00 0.00 0.00 0.00 0.01 0.00 0.00 0.00 0.00 0.00 0.00 0.01 0.01 0.01 0.03 0.05 0.07 0.05 0.04 0.03 0.03 0.03 0.03 0.03 0.02 0.01 0.00 0.00 0.02 0.04 0.08 0.09 0.07 0.04 0.03
0.03 0.03 0.03 0.03 0.02 0.02 0.02 0.01 0.01 0.01 0.00 0.00 0.00 0.01 0.01 0.00 0.00 0.00 0.00 0.01 0.00 0.01 0.02 0.04 0.06 0.06 0.05 0.04 0.03 0.03 0.03 0.03 0.02 0.01 0.00 0.01 0.02 0.04 0.06 0.06 0.04 0.02 0.01
0.02 0.03 0.04 0.04 0.03 0.02 0.02 0.02 0.01 0.02 0.02 0.01 0.00 0.00 0.01 0.01 0.00 0.00 0.00 0.00 0.00 0.00 0.01 0.03 0.05 0.06 0.06 0.06 0.05 0.04 0.03 0.03 0.03 0.02 0.01 0.01 0.04 0.05 0.06 0.07 0.03 0.01 0.01
0.02 0.03 0.04 0.04 0.05 0.04 0.02 0.02 0.01 0.01 0.01 0.01 0.00 0.01 0.01 0.01 0.00 0.00 0.00 0.00 0.00 0.01 0.01 0.01 0.03 0.06 0.05 0.05 0.05 0.05 0.05 0.04 0.04 0.03 0.03 0.04 0.05 0.05 0.06 0.05 0.02 0.01 0.01
0.02 0.03 0.04 0.04 0.04 0.05 0.05 0.04 0.02 0.02 0.02 0.01 0.01 0.01 0.00 0.01 0.00 0.00 0.00 0.00 0.01 0.01 0.01 0.01 0.02 0.03 0.05 0.04 0.04 0.05 0.05 0.05 0.04 0.05 0.04 0.05 0.05 0.04 0.04 0.02 0.01 0.01 0.01
0.02 0.04 0.05 0.04 0.04 0.04 0.05 0.06 0.07 0.04 0.03 0.01 0.01 0.00 0.00 0.01 0.01 0.00 0.00 0.00 0.01 0.01 0.01 0.01 0.01 0.02 0.04 0.04 0.04 0.04 0.04 0.04 0.03 0.03 0.02 0.02 0.03 0.03 0.02 0.01 0.01 0.01 0.01
0.03 0.04 0.05 0.04 0.03 0.04 0.04 0.04 0.06 0.07 0.04 0.02 0.02 0.01 0.01 0.01 0.01 0.00 0.00 0.00 0.01 0.01 0.01 0.01 0.01 0.01 0.03 0.04 0.05 0.05 0.04 0.04 0.03 0.02 0.02 0.01 0.01 0.05 0.06 0.02 0.01 0.01 0.01
0.03 0.04 0.04 0.03 0.03 0.03 0.05 0.06 0.06 0.07 0.06 0.03 0.02 0.02 0.02 0.02 0.01 0.01 0.00 0.00 0.01 0.01 0.01 0.01 0.01 0.01 0.01 0.02 0.03 0.03 0.04 0.04 0.04 0.04 0.03 0.02 0.01 0.04 0.03 0.02 0.01 0.01 0.01
MSLP
1017.25 1016.81 1016.45 1016.21 1016.06 1015.98 1015.94 1015.90 1015.83 1015.73 1015.62 1015.51 1015.43 1015.39 1015.39 1015.42 1015.44 1015.43 1015.37 1015.26 1015.10 1014.93 1014.77 1014.63 1014.54 1014.47 1014.42 1014.35 1014.24 1014.07 1013.86 1013.60 1013.33 1013.05 1012.79 1012.56 1012.34 1012.14 1011.93 1011.72 1011.51 1011.29 1011.07
1017.35 1016.94 1016.61 1016.37 1016.24 1016.18 1016.16 1016.15 1016.12 1016.05 1015.96 1015.87 1015.80 1015.76 1015.76 1015.76 1015.76 1015.73 1015.65 1015.52 1015.36 1015.19 1015.02 1014.88 1014.77 1014.68 1014.59 1014.48 1014.33 1014.13 1013.89 1013.63 1013.35 1013.07 1012.82 1012.58 1012.36 1012.14 1011.92 1011.68 1011.44 1011.20 1010.97
1017.40 1017.02 1016.70 1016.49 1016.38 1016.36 1016.38 1016.42 1016.43 1016.40 1016.35 1016.27 1016.19 1016.14 1016.10 1016.07 1016.03 1015.97 1015.87 1015.73 1015.57 1015.39 1015.23 1015.08 1014.95 1014.84 1014.71 1014.57 1014.39 1014.18 1013.94 1013.68 1013.42 1013.16 1012.93 1012.71 1012.49 1012.27 1012.03 1011.78 1011.52 1011.26 1011.01
1017.40 1017.04 1016.74 1016.55 1016.49 1016.51 1016.60 1016.69 1016.75 1016.76 1016.72 1016.65 1016.56 1016.47 1016.39 1016.31 1016.24 1016.14 1016.02 1015.88 1015.72 1015.55 1015.38 1015.23 1015.09 1014.95 1014.81 1014.64 1014.45 1014.23 1014.00 1013.77 1013.54 1013.32 1013.12 1012.92 1012.71 1012.49 1012.25 1011.99 1011.72 1011.46 1011.20
1017.34 1017.00 1016.73 1016.59 1016.57 1016.66 1016.80 1016.95 1017.05 1017.09 1017.06 1016.97 1016.85 1016.72 1016.60 1016.49 1016.37 1016.26 1016.13 1015.98 1015.83 1015.67 1015.51 1015.35 1015.20 1015.05 1014.88 1014.70 1014.51 1014.30 1014.09 1013.88 1013.69 1013.52 1013.35 1013.17 1012.98 1012.77 1012.52 1012.27 1012.00 1011.74 1011.50
1017.26 1016.94 1016.70 1016.61 1016.65 1016.80 1016.99 1017.18 1017.31 1017.36 1017.32 1017.22 1017.07 1016.91 1016.75 1016.61 1016.48 1016.36 1016.23 1016.09 1015.95 1015.80 1015.64 1015.48 1015.32 1015.15 1014.96 1014.77 1014.57 1014.37 1014.19 1014.01 1013.86 1013.72 1013.58 1013.43 1013.25 1013.04 1012.80 1012.55 1012.29 1012.05 1011.83
1017.20 1016.89 1016.70 1016.67 1016.76 1016.96 1017.19 1017.39 1017.53 1017.57 1017.51 1017.38 1017.22 1017.04 1016.87 1016.73 1016.61 1016.49 1016.38 1016.26 1016.12 1015.97 1015.81 1015.64 1015.46 1015.27 1015.07 1014.86 1014.66 1014.47 1014.29 1014.15 1014.02 1013.90 1013.78 1013.64 1013.47 1013.26 1013.03 1012.79 1012.55 1012.33 1012.13
1017.19 1016.92 1016.78 1016.80 1016.94 1017.17 1017.40 1017.60 1017.71 1017.72 1017.64 1017.50 1017.33 1017.16 1017.01 1016.90 1016.80 1016.71 1016.62 1016.51 1016.38 1016.22 1016.04 1015.85 1015.64 1015.42 1015.20 1014.99 1014.78 1014.59 1014.42 1014.28 1014.16 1014.05 1013.94 1013.80 1013.63 1013.43 1013.20 1012.97 1012.74 1012.54 1012.37
1017.27 1017.05 1016.98 1017.04 1017.22 1017.44 1017.66 1017.82 1017.89 1017.86 1017.75 1017.60 1017.45 1017.32 1017.22 1017.15 1017.10 1017.05 1016.98 1016.87 1016.73 1016.55 1016.34 1016.11 1015.87 1015.63 1015.39 1015.16 1014.95 1014.76 1014.60 1014.46 1014.34 1014.22 1014.09 1013.94 1013.77 1013.56 1013.33 1013.10 1012.89 1012.70 1012.55
1017.45 1017.31 1017.30 1017.41 1017.59 1017.80 1017.98 1018.07 1018.08 1018.01 1017.88 1017.74 1017.62 1017.55 1017.51 1017.52 1017.52 1017.51 1017.45 1017.33 1017.16 1016.94 1016.68 1016.41 1016.15 1015.89 1015.64 1015.42 1015.21 1015.03 1014.87 1014.72 1014.59 1014.45 1014.31 1014.14 1013.94 1013.72 1013.49 1013.26 1013.04 1012.85 1012.69
1017.72 1017.66 1017.71 1017.86 1018.05 1018.23 1018.34 1018.37 1018.31 1018.19 1018.06 1017.94 1017.87 1017.87 1017.91 1017.98 1018.04 1018.05 1017.99 1017.85 1017.63 1017.36 1017.06 1016.76 1016.47 1016.20 1015.97 1015.77 1015.59 1015.43 1015.28 1015.13 1014.98 1014.82 1014.64 1014.45 1014.23 1013.99 1013.74 1013.49 1013.26 1013.05 1012.87
1018.04 1018.07 1018.19 1018.37 1018.55 1018.69 1018.74 1018.70 1018.59 1018.44 1018.30 1018.22 1018.21 1018.27 1018.39 1018.52 1018.62 1018.65 1018.57 1018.39 1018.12 1017.80 1017.45 1017.12 1016.83 1016.59 1016.39 1016.24 1016.11 1015.98 1015.85 1015.71 1015.55 1015.36 1015.16 1014.93 1014.68 1014.41 1014.14 1013.87 1013.60 1013.35 1013.13
1018.39 1018.49 1018.67 1018.87 1019.04 1019.14 1019.14 1019.06 1018.91 1018.75 1018.62 1018.58 1018.63 1018.75 1018.93 1019.10 1019.22 1019.23 1019.13 1018.90 1018.59 1018.22 1017.85 1017.52 1017.24 1017.05 1016.91 1016.83 1016.76 1016.69 1016.60 1016.47 1016.31 1016.11 1015.87 1015.60 1015.32 1015.02 1014.71 1014.40 1014.09 1013.79 1013.49
1018.70 1018.86 1019.08 1019.29 1019.46 1019.54 1019.52 1019.42 1019.26 1019.11 1019.02 1019.01 1019.11 1019.28 1019.49 1019.68 1019.79 1019.79 1019.64 1019.38 1019.02 1018.63 1018.26 1017.94 1017.71 1017.58 1017.52 1017.52 1017.54 1017.53 1017.49 1017.39 1017.23 1017.01 1016.75 1016.45 1016.12 1015.79 1015.44 1015.08 1014.72 1014.35 1013.99
1018.95 1019.15 1019.39 1019.62 1019.79 1019.87 1019.86 1019.77 1019.65 1019.53 1019.48 1019.51 1019.64 1019.83 1020.05 1020.23 1020.32 1020.28 1020.11 1019.81 1019.44 1019.04 1018.68 1018.40 1018.23 1018.17 1018.20 1018.29 1018.39 1018.45 1018.46 1018.40 1018.25 1018.02 1017.73 1017.40 1017.05 1016.67 1016.28 1015.88 1015.47 1015.04 1014.59
1019.14 1019.34 1019.59 1019.83 1020.02 1020.13 1020.17 1020.13 1020.06 1020.00 1020.00 1020.07 1020.21 1020.40 1020.59 1020.74 1020.79 1020.72 1020.52 1020.21 1019.84 1019.46 1019.14 1018.91 1018.80 1018.81 1018.92 1019.08 1019.25 1019.38 1019.44 1019.41 1019.28 1019.05 1018.75 1018.41 1018.02 1017.62 1017.19 1016.75 1016.29 1015.81 1015.30
1019.29 1019.47 1019.71 1019.96 1020.18 1020.35 1020.45 1020.50 1020.51 1020.53 1020.57 1020.66 1020.80 1020.96 1021.11 1021.21 1021.22 1021.12 1020.90 1020.60 1020.26 1019.92 1019.64 1019.47 1019.41 1019.48 1019.64 1019.86 1020.08 1020.26 1020.36 1020.36 1020.25 1020.04 1019.75 1019.39 1018.99 1018.57 1018.12 1017.65 1017.16 1016.63 1016.07
1019.44 1019.59 1019.81 1020.07 1020.32 1020.55 1020.75 1020.89 1021.00 1021.09 1021.18 1021.29 1021.40 1021.51 1021.60 1021.64 1021.61 1021.48 1021.27 1020.99 1020.69 1020.41 1020.19 1020.06 1020.05 1020.15 1020.33 1020.57 1020.82 1021.02 1021.15 1021.19 1021.11 1020.93 1020.66 1020.32 1019.93 1019.50 1019.04 1018.55 1018.04 1017.49 1016.91
1019.61 1019.73 1019.92 1020.18 1020.48 1020.78 1021.06 1021.31 1021.51 1021.68 1021.81 1021.92 1022.00 1022.05 1022.07 1022.05 1021.97 1021.83 1021.63 1021.40 1021.16 1020.94 1020.77 1020.68 1020.69 1020.80 1020.98 1021.21 1021.46 1021.67 1021.83 1021.89 1021.86 1021.72 1021.49 1021.19 1020.82 1020.40 1019.95 1019.47 1018.95 1018.39 1017.79
1019.83 1019.91 1020.08 1020.34 1020.66 1021.03 1021.39 1021.74 1022.03 1022.27 1022.43 1022.53 1022.57 1022.56 1022.51 1022.43 1022.31 1022.17 1022.00 1021.82 1021.64 1021.49 1021.37 1021.31 1021.33 1021.41 1021.57 1021.77 1022.00 1022.21 1022.38 1022.49 1022.51 1022.43 1022.26 1022.01 1021.68 1021.29 1020.86 1020.38 1019.87 1019.31 1018.71
1020.09 1020.15 1020.29 1020.54 1020.88 1021.29 1021.72 1022.15 1022.52 1022.81 1023.00 1023.09 1023.09 1023.03 1022.92 1022.79 1022.64 1022.51 1022.38 1022.25 1022.14 1022.04 1021.97 1021.94 1021.94 1022.00 1022.12 1022.28 1022.47 1022.67 1022.86 1023.00 1023.08 1023.08 1022.98 1022.80 1022.53 1022.18 1021.78 1021.32 1020.81 1020.26 1019.67
1020.34 1020.39 1020.52 1020.75 1021.09 1021.53 1022.01 1022.50 1022.93 1023.27 1023.49 1023.58 1023.55 1023.44 1023.29 1023.12 1022.97 1022.84 1022.75 1022.68 1022.64 1022.60 1022.57 1022.55 1022.54 1022.57 1022.64 1022.76 1022.92 1023.11 1023.30 1023.49 1023.63 1023.69 1023.68 1023.57 1023.36 1023.07 1022.70 1022.26 1021.76 1021.22 1020.63
1020.53 1020.59 1020.71 1020.92 1021.26 1021.70 1022.21 1022.74 1023.23 1023.61 1023.86 1023.96 1023.93 1023.80 1023.63 1023.45 1023.29 1023.18 1023.13 1023.12 1023.13 1023.14 1023.15 1023.15 1023.14 1023.14 1023.17 1023.24 1023.37 1023.54 1023.75 1023.96 1024.15 1024.29 1024.35 1024.31 1024.17 1023.93 1023.59 1023.18 1022.70 1022.16 1021.58
1020.61 1020.70 1020.81 1021.01 1021.33 1021.77 1022.30 1022.86 1023.39 1023.82 1024.11 1024.24 1024.23 1024.11 1023.94 1023.76 1023.62 1023.54 1023.52 1023.55 1023.62 1023.68 1023.72 1023.74 1023.73 1023.71 1023.71 1023.75 1023.85 1024.01 1024.21 1024.45 1024.68 1024.87 1024.99 1025.01 1024.93 1024.74 1024.44 1024.05 1023.59 1023.06 1022.48
1020.56 1020.68 1020.79 1020.98 1021.28 1021.71 1022.25 1022.84 1023.41 1023.89 1024.24 1024.42 1024.46 1024.38 1024.23 1024.07 1023.95 1023.90 1023.92 1023.99 1024.10 1024.20 1024.28 1024.32 1024.32 1024.30 1024.29 1024.31 1024.38 1024.51 1024.71 1024.94 1025.19 1025.40 1025.56 1025.64 1025.61 1025.46 1025.21 1024.85 1024.41 1023.90 1023.33
1020.36 1020.52 1020.65 1020.84 1021.13 1021.56 1022.10 1022.71 1023.32 1023.86 1024.27 1024.53 1024.63 1024.60 1024.50 1024.38 1024.30 1024.27 1024.31 1024.42 1024.56 1024.70 1024.82 1024.88 1024.91 1024.90 1024.89 1024.89 1024.94 1025.05 1025.23 1025.44 1025.68 1025.90 1026.08 1026.19 1026.20 1026.10 1025.89 1025.57 1025.17 1024.68 1024.13
Thickness
5759 5764 5767 5769 5770 5770 5771 5772 5773 5774 5775 5776 5776 5777 5777 5777 5777 5777 5776 5776 5775 5775 5775 5775 5775 5774 5774 5774 5773 5773 5773 5773 5773 5772 5773 5772 5772 5772 5772 5771 5771 5770 5770
5761 5763 5765 5766 5767 5768 5769 5770 5771 5772 5773 5774 5775 5775 5775 5776 5776 5775 5775 5774 5773 5772 5772 5772 5772 5772 5771 5771 5771 5771 5771 5771 5770 5770 5770 5770 5770 5770 5769 5769 5769 5769 5768
5761 5762 5763 5764 5766 5767 5767 5768 5769 5770 5771 5772 5773 5773 5774 5774 5774 5774 5773 5772 5771 5770 5770 5770 5769 5769 5769 5768 5768 5768 5768 5768 5767 5767 5767 5767 5768 5768 5768 5768 5767 5767 5766
5760 5761 5761 5762 5764 5765 5765 5766 5767 5768 5769 5769 5771 5771 5772 5772 5772 5772 5771 5770 5768 5767 5767 5767 5767 5766 5766 5766 5766 5765 5765 5765 5764 5764 5764 5764 5765 5765 5766 5765 5765 5764 5764
5758 5759 5760 5760 5761 5762 5763 5763 5764 5765 5766 5767 5769 5769 5769 5769 5769 5769 5768 5767 5765 5764 5764 5764 5764 5764 5764 5764 5763 5762 5762 5761 5761 5761 5761 5761 5762 5763 5763 5762 5762 5761 5761
5756 5757 5757 5758 5759 5759 5760 5760 5761 5762 5763 5764 5765 5765 5765 5765 5765 5765 5765 5763 5762 5762 5761 5761 5761 5761 5761 5761 5760 5760 5759 5758 5758 5758 5758 5759 5759 5759 5760 5759 5759 5759 5758
5753 5754 5755 5756 5756 5756 5757 5757 5758 5758 5759 5760 5761 5760 5760 5761 5761 5761 5760 5760 5759 5758 5758 5758 5758 5757 5758 5757 5757 5757 5756 5755 5755 5755 5755 5755 5755 5756 5756 5756 5756 5756 5755
5751 5752 5752 5753 5753 5753 5754 5754 5755 5755 5755 5756 5756 5756 5756 5757 5757 5756 5756 5756 5755 5755 5754 5754 5754 5754 5754 5753 5753 5753 5752 5752 5751 5751 5751 5751 5752 5752 5752 5752 5752 5752 5752
5749 5749 5749 5749 5750 5750 5750 5751 5751 5751 5751 5752 5752 5752 5752 5752 5752 5752 5752 5752 5752 5751 5751 5750 5750 5750 5750 5749 5749 5748 5748 5748 5748 5747 5747 5747 5748 5748 5748 5748 5748 5748 5748
5744 5745 5745 5746 5746 5747 5747 5747 5747 5747 5747 5747 5748 5748 5748 5748 5748 5747 5747 5747 5747 5747 5746 5746 5746 5745 5745 5744 5744 5743 5743 5743 5743 5743 5743 5743 5744 5744 5743 5743 5743 5743 5744
5740 5741 5742 5742 5743 5743 5744 5743 5743 5743 5743 5743 5743 5743 5743 5743 5743 5742 5743 5743 5743 5742 5742 5742 5741 5741 5740 5740 5739 5738 5738 5738 5738 5738 5739 5739 5739 5739 5739 5738 5738 5738 5739
5735 5738 5739 5739 5740 5740 5740 5740 5740 5739 5739 5739 5738 5738 5738 5738 5738 5738 5738 5738 5738 5737 5737 5737 5737 5736 5736 5735 5734 5734 5733 5732 5733 5733 5733 5734 5734 5734 5734 5734 5733 5733 5734
5734 5736 5737 5737 5737 5736 5736 5736 5736 5736 5735 5735 5734 5734 5734 5733 5733 5733 5732 5732 5732 5733 5732 5732 5732 5731 5731 5730 5729 5728 5728 5727 5727 5727 5728 5728 5729 5729 5729 5729 5729 5729 5728
5733 5733 5734 5735 5734 5733 5733 5733 5732 5732 5731 5731 5730 5730 5730 5729 5728 5727 5727 5727 5727 5727 5727 5727 5727 5727 5727 5726 5725 5724 5723 5722 5722 5722 5722 5723 5723 5723 5724 5724 5723 5723 5724
5730 5731 5732 5732 5730 5730 5729 5729 5727 5727 5727 5726 5726 5726 5725 5725 5724 5723 5723 5723 5723 5723 5723 5723 5722 5722 5721 5721 5720 5719 5718 5717 5717 5717 5717 5717 5718 5718 5718 5719 5719 5719 5719
5726 5727 5728 5728 5727 5727 5725 5724 5723 5723 5722 5722 5722 5722 5721 5721 5720 5719 5719 5719 5719 5719 5718 5718 5717 5717 5716 5715 5715 5714 5713 5712 5712 5711 5711 5711 5712 5712 5713 5714 5714 5714 5714
5723 5725 5725 5725 5724 5723 5722 5721 5720 5719 5718 5717 5717 5717 5717 5716 5716 5715 5714 5714 5714 5714 5714 5714 5713 5712 5711 5710 5709 5709 5708 5707 5706 5706 5705 5705 5706 5706 5707 5707 5708 5708 5709
5721 5721 5721 5722 5720 5719 5718 5717 5716 5715 5714 5713 5713 5712 5712 5712 5712 5711 5710 5710 5710 5709 5709 5709 5708 5706 5705 5703 5702 5702 5702 5701 5701 5700 5700 5700 5700 5700 5701 5701 5702 5703 5703
5718 5717 5717 5716 5715 5714 5714 5713 5712 5711 5710 5708 5708 5707 5707 5707 5707 5706 5706 5705 5705 5704 5704 5704 5701 5701 5699 5698 5697 5696 5696 5695 5695 5695 5694 5694 5694 5694 5694 5695 5696 5697 5698
5715 5714 5713 5712 5711 5710 5709 5707 5706 5705 5704 5703 5702 5702 5702 5701 5701 5701 5701 5700 5700 5699 5697 5697 5696 5695 5694 5693 5693 5690 5689 5689 5689 5689 5689 5688 5688 5688 5688 5689 5690 5690 5691
5710 5708 5707 5706 5705 5705 5703 5701 5699 5697 5697 5697 5697 5697 5696 5696 5695 5695 5694 5694 5694 5693 5691 5691 5690 5688 5687 5686 5684 5681 5682 5683 5683 5683 5683 5682 5682 5683 5683 5683 5683 5684 5685
5704 5703 5701 5700 5699 5699 5698 5697 5695 5693 5691 5691 5691 5691 5690 5690 5689 5689 5688 5687 5687 5686 5685 5685 5684 5682 5680 5679 5676 5672 5670 5671 5674 5676 5676 5676 5676 5676 5676 5677 5677 5678 5679
5697 5696 5696 5694 5693 5693 5692 5691 5689 5687 5685 5683 5683 5683 5684 5684 5683 5682 5682 5681 5680 5680 5679 5678 5678 5676 5673 5672 5672 5668 5663 5661 5664 5667 5668 5669 5669 5670 5670 5671 5671 5671 5672
5692 5691 5690 5688 5687 5686 5686 5684 5682 5678 5675 5674 5675 5676 5677 5677 5676 5676 5675 5674 5674 5673 5672 5672 5671 5670 5668 5666 5665 5665 5663 5662 5657 5656 5659 5661 5662 5662 5663 5664 5665 5665 5666
5686 5685 5684 5683 5681 5680 5679 5677 5675 5672 5670 5669 5669 5669 5669 5670 5670 5669 5668 5668 5667 5666 5665 5665 5664 5663 5662 5660 5659 5657 5657 5656 5655 5652 5649 5651 5653 5655 5656 5657 5658 5659 5660
5679 5678 5677 5676 5674 5673 5671 5669 5668 5666 5664 5663 5662 5661 5661 5661 5662 5662 5662 5661 5659 5658 5657 5657 5657 5656 5655 5654 5653 5652 5650 5649 5647 5646 5644 5643 5644 5647 5648 5650 5650 5651 5653